Regional Weather Roundup
Issued by NWS Jackson, KY

Home | Current Version | Previous Version | Graphics & Text | Print | Product List | Glossary On
Versions: 1 2 3 4 5 6 7 8 9 10 11 12 13 14 15 16 17 18 19 20 21 22 23 24 25 26 27 28 29 30 31 32 33 34 35 36 37 38 39 40 41 42 43 44 45 46 47 48 49
000
ASUS43 KJKL 300810
RWRJKL

EAST KENTUCKY HOURLY WEATHER ROUNDUP
NATIONAL WEATHER SERVICE JACKSON KY
400 AM EDT THU JUL 30 2015

NOTE: "FAIR" INDICATES FEW OR NO CLOUDS BELOW 12,000 FEET WITH
NO SIGNIFICANT WEATHER AND/OR OBSTRUCTIONS TO VISIBILITY.

* THESE REPORTS ARE NOT UNDER NWS QUALITY CONTROL AND MAY NOT
  REPORT WEATHER SUCH AS PRECIPITATION AND FOG.

KYZ079-080-083-085-087-088-110-112-115-119-120-300900
...EASTERN KENTUCKY...

CITY           SKY/WX    TMP DP  RH WIND       PRES   REMARKS
JACKSON        MOCLDY    72  69  90 CALM      30.02S
LONDON         MOCLDY    74  68  81 SW5       30.03S
SOMERSET*      MOCLDY    70  70 100 CALM      30.04S
MONTICELLO*    MOCLDY    71  71 100 CALM      30.06R FOG
WILLIAMSBURG*  CLEAR     72  72 100 CALM      30.04R
MIDDLESBORO*   PTCLDY    73  72  97 CALM      30.02F
HAZARD APT*    SUNNY     73  73 100 CALM      30.02S
BLACK MTN*       N/A     68  68 100 S1          N/A
PIKEVILLE APT* CLOUDY    73  73 100 W3        30.01S
BIG SANDY*     CLOUDY    75  73  94 W5        29.99F
MOREHEAD APT*  CLOUDY    73  70  88 CALM      30.01S
$$

KYZ035-036-041-042-044-050-067-078-099-300900
...CENTRAL KENTUCKY...

CITY           SKY/WX    TMP DP  RH WIND       PRES   REMARKS
MT STERLING*   CLOUDY    72  72 100 CALM      30.02R
FLEMING/MASON* MOCLDY    72  72 100 W8        30.00S
DANVILLE*      CLOUDY    72  70  94 NW7       30.04R
RICHMOND*      CLOUDY    70  68  94 CALM      30.01S
LEXINGTON      CLOUDY    74  71  91 NW10      30.01S
FRANKFORT      MOCLDY    73  70  90 NW6       30.00S
$$

KYZ091>093-OHZ055-061-077-WVZ005-015-034-035-042-300900
...SOUTHERN OHIO/WEST VIRGINIA...

CITY           SKY/WX    TMP DP  RH WIND       PRES   REMARKS
COVINGTON      CLOUDY    72  62  71 NW8       30.01R
COLUMBUS       MOCLDY    71  64  78 N7        29.96S
DAYTON         CLOUDY    72  65  78 NW9       30.01S
WILMINGTON     CLOUDY    74  66  76 N8        29.99S
HUNTINGTON     MOCLDY    75  72  90 SW3       29.95F
CHARLESTON     CLOUDY    73  71  93 CALM      29.96S FOG
PINEVILLE*     FOG       71  71 100 MISG      30.07F VSB 1
BECKLEY        PTCLDY    70  67  90 CALM      30.05F
BLUEFIELD      CLEAR     72  67  84 W6        30.08F
$$

VAZ002-007-008-TNZ017-027-036-066-071-300900
...SOUTHWEST VIRGINIA/EAST TENNESSEE...

CITY           SKY/WX    TMP DP  RH WIND       PRES   REMARKS
WISE*          PTCLDY    70  70 100 S5        30.09F FOG
ABINGDON*      MOCLDY    73  69  86 CALM      30.05F
BRISTOL        MOCLDY    73  71  93 CALM      30.02S
KNOXVILLE      MOCLDY    79  73  82 N3        29.99R
OAK RIDGE      MOCLDY    78  73  84 CALM      30.01S
CROSSVILLE     MOCLDY    71  68  90 CALM      30.07S
NASHVILLE      CLEAR     78  73  84 NW3       30.02S
$$

...KEY TO REMARKS...
VSB - VISIBILITY IN MILES
WCI - WIND CHILL INDEX
HX  - HEAT INDEX

$$



USA.gov is the U.S. government's official web portal to all federal, state and local government web resources and services.